User: anonymous   Login
Location: Caltech
(34.1382°N, 118.1253°W)
Time: 23:39:00
(UTC-07:00)
Language:

Cosmos 2322 - Orbit

View from above orbital plane
View from above orbital plane
View from above satellite
View from above satellite

Ground track
Ground track

The orbit data is extracted from the following two-line orbital elements,

1 23704U 95058A   17087.77607801 -.00000240 +00000-0 -10220-3 0  9998
2 23704 070.9866 212.3340 0011451 228.8047 131.2088 14.13375377104270
Epoch (UTC): 28 March 2017 18:37:33
Eccentricity: 0.0011451
inclination: 70.9866°
perigee height: 839 km
apogee height: 856 km
right ascension of ascending node: 212.3340°
argument of perigee: 228.8047°
revolutions per day: 14.13375377
mean anomaly at epoch: 131.2088°
orbit number at epoch: 10427

The dashed part of the orbit path shows where the satellite is in the earth's shadow,  

DLR